Weather History for Memphis, TN

Change the Weather History Date:

Monday, September 16, 2013

  Actual Average Record
Temperature  
Mean Temperature 77 °F 75 °F  
Max Temperature 91 °F 85 °F 102 °F (1980)
Min Temperature 63 °F 65 °F 47 °F (1961)
Degree Days  
Heating Degree Days 0 0  
Month to date heating degree days 0 0  
Since 1 July heating degree days 0 0  
Cooling Degree Days 12 10  
Month to date cooling degree days 261 204  
Year to date cooling degree days 1987 2039  
Growing Degree Days 27 (Base 50)    
Moisture  
Dew Point 57 °F    
Average Humidity 51    
Maximum Humidity 78    
Minimum Humidity 23    
Precipitation  
Precipitation 0.00 in 0.10 in 1.50 in (1988)
Month to date precipitation 0.11 1.54  
Year to date precipitation 46.06 36.92  
Snow  
Snow 0.00 in 0.00 in - ()
Month to date snowfall 0.0 0.0  
Since 1 July snowfall 0.0 0.0  
Since 1 September snowfall 0.0 0.0  
Snow Depth 0.00 in    
Sea Level Pressure  
Sea Level Pressure 30.11 in    
Wind  
Wind Speed 7 mph (NE)    
Max Wind Speed 17 mph    
Max Gust Speed 22 mph    
Visibility 10 miles    
Events      
T = Trace of Precipitation, MM = Missing Value Source: NWS Daily Summary

Daily Weather History Graph

Daily Weather History Graph

Search for Another Location

Airport:

Trip Planner

Search our weather history database for the weather conditions in past years. The results will help you decide how hot, cold, wet, or windy it might be!

Date:

Astronomy

Sep. 16, 2013 Rise Set
Actual Time 6:43 AM CDT 7:05 PM CDT
Civil Twilight 6:18 AM CDT 7:30 PM CDT
Nautical Twilight 5:48 AM CDT 8:00 PM CDT
Astronomical Twilight 5:18 AM CDT 8:30 PM CDT
Moon 5:09 PM CDT (9/16) 3:35 AM CDT (9/16)
Length of Visible Light 13h 12m
Length of Day
12h 21m
Waxing Gibbous, 90% of the Moon is Illuminated
Sep 16
Waxing Gibbous
Sep 19
Full
Sep 26
Last Quarter
Oct 4
New
Oct 11
First Quarter

Hourly Weather History & Observations

Time (CDT) Temp. Heat Index Dew Point Humidity Pressure Visibility Wind Dir Wind Speed Gust Speed Precip Events Conditions
12:54 AM 71.1 °F - 55.0 °F 57% 30.08 in 10.0 mi ESE 3.5 mph - N/A   Scattered Clouds
1:54 AM 66.0 °F - 55.0 °F 68% 30.08 in 10.0 mi Calm Calm - N/A   Scattered Clouds
2:54 AM 66.9 °F - 55.0 °F 66% 30.07 in 10.0 mi Calm Calm - N/A   Scattered Clouds
3:54 AM 66.9 °F - 55.9 °F 68% 30.07 in 10.0 mi Calm Calm - N/A   Mostly Cloudy
4:54 AM 66.0 °F - 55.0 °F 68% 30.06 in 10.0 mi ENE 3.5 mph - N/A   Mostly Cloudy
5:54 AM 64.9 °F - 57.0 °F 75% 30.09 in 10.0 mi NE 6.9 mph - N/A   Mostly Cloudy
6:54 AM 64.9 °F - 55.9 °F 73% 30.11 in 10.0 mi Calm Calm - N/A   Mostly Cloudy
7:54 AM 68.0 °F - 57.0 °F 68% 30.13 in 10.0 mi ENE 3.5 mph - N/A   Mostly Cloudy
8:54 AM 73.9 °F - 57.0 °F 55% 30.14 in 10.0 mi Calm Calm - N/A   Scattered Clouds
9:54 AM 79.0 °F - 57.9 °F 48% 30.14 in 10.0 mi Calm Calm - N/A   Scattered Clouds
10:54 AM 84.0 °F 83.0 °F 55.9 °F 38% 30.14 in 10.0 mi NE 5.8 mph - N/A   Scattered Clouds
11:54 AM 87.1 °F 86.1 °F 57.9 °F 37% 30.14 in 10.0 mi NNE 9.2 mph - N/A   Mostly Cloudy
12:54 PM 88.0 °F - 51.1 °F 28% 30.14 in 10.0 mi NE 6.9 mph - N/A   Mostly Cloudy
1:54 PM 90.0 °F - 52.0 °F 27% 30.12 in 10.0 mi Variable 3.5 mph - N/A   Mostly Cloudy
2:54 PM 90.0 °F - 46.0 °F 22% 30.10 in 10.0 mi NE 8.1 mph - N/A   Scattered Clouds
3:54 PM 89.1 °F 86.9 °F 54.0 °F 30% 30.09 in 10.0 mi North 12.7 mph - N/A   Scattered Clouds
4:54 PM 87.1 °F 85.7 °F 55.9 °F 35% 30.08 in 10.0 mi ENE 11.5 mph - N/A   Scattered Clouds
5:54 PM 86.0 °F 84.7 °F 55.9 °F 36% 30.08 in 10.0 mi NE 11.5 mph - N/A   Scattered Clouds
6:54 PM 82.9 °F 82.6 °F 57.9 °F 42% 30.09 in 10.0 mi NNE 9.2 mph - N/A   Scattered Clouds
7:54 PM 82.0 °F 83.1 °F 63.0 °F 52% 30.09 in 10.0 mi NE 12.7 mph - N/A   Partly Cloudy
8:54 PM 78.1 °F - 66.0 °F 66% 30.11 in 10.0 mi NE 10.4 mph - N/A   Partly Cloudy
9:54 PM 75.9 °F - 66.0 °F 71% 30.12 in 10.0 mi NE 11.5 mph - N/A   Partly Cloudy
10:54 PM 75.0 °F - 64.9 °F 71% 30.13 in 10.0 mi NNE 10.4 mph - N/A   Partly Cloudy
11:54 PM 73.9 °F - 64.9 °F 73% 30.14 in 10.0 mi ENE 11.5 mph - N/A   Partly Cloudy